Regional Weather Roundup
Issued by NWS

Home | Current Version | Previous Version | Graphics & Text | Print | Product List | Glossary On
Versions: 1 2 3 4 5 6 7 8 9 10 11 12 13 14 15 16 17 18 19 20 21 22 23 24 25 26 27 28 29 30 31 32 33 34 35 36 37 38 39 40 41 42 43 44 45 46 47 48 49 50
444
ASUS45 KCYS 240410
RWRWY

WYOMING REGIONAL WEATHER ROUNDUP
NATIONAL WEATHER SERVICE CHEYENNE WY
900 PM MST THU FEB 23 2017

NOTE:  "FAIR" INDICATES FEW OR NO CLOUDS BELOW 12,000 FEET
WITH NO SIGNIFICANT WEATHER AND/OR OBSTRUCTIONS TO VISIBILITY.

WYZ001-240500-
YELLOWSTONE NATIONAL PARK

CITY           SKY/WX    TMP DP  RH WIND       PRES   REMARKS
LK YELLOWSTONE   N/A     12   5  73 CALM      29.73F
W YELLOWSTONE  NOT AVBL

$$
WYZ002>013-054>058-071-098>099-240500-
NORTHERN WYOMING

CITY           SKY/WX    TMP DP  RH WIND       PRES   REMARKS
JACKSON        CLOUDY    23  16  74 CALM      29.74R
CODY           LGT SNOW  21  16  81 N8        29.90S WCI  11
GREYBULL       FLURRIES  28  22  78 W12       29.89R WCI  18
WORLAND        LGT SNOW  25  24  96 W5        29.90S FOG     WCI  19
SHERIDAN       LGT SNOW  25  22  88 SE15      29.96R FOG     WCI  13
BUFFALO        LGT SNOW  22  18  85 NW5       29.92S FOG     WCI  16
GILLETTE       CLOUDY    24  19  81 NE14      29.93R WCI  12
HULETT         LGT SNOW  27  23  86 MISG      29.95R
NEWCASTLE      FAIR      25  23  93 NW5       29.93R WCI  19

$$
WYZ014>020-022>026-101>103-240500-
CENTRAL WYOMING

CITY           SKY/WX    TMP DP  RH WIND       PRES   REMARKS
BIG PINEY      LGT SNOW  18  17  96 SW7       29.74S WCI   9
PINEDALE       CLOUDY    19  14  79 W10G16    29.74S WCI   8
DUBOIS         LGT SNOW  16  14  93 SE7       29.75R WCI   6
LANDER         LGT SNOW  20  18  92 CALM      29.83S FOG
RIVERTON       LGT SNOW  19  18  95 NE9       29.85R VSB 1   WCI   8
CASPER         CLOUDY    18  15  88 E12       29.85S FOG     WCI   5
DOUGLAS        LGT SNOW  18  16  92 S5        29.89S FOG     WCI  11

$$
WYZ021-027>030-104>119-240500-
SOUTHERN WYOMING

CITY           SKY/WX    TMP DP  RH WIND       PRES   REMARKS
EVANSTON       LGT SNOW  18  13  80 SW12      29.75S VSB 3/4 WCI   5
FORT BRIDGER   LGT SNOW  19  19 100 W9        29.79S WCI   8
ROCK SPRINGS   LGT SNOW  19  12  74 NE16      29.74R WCI   4
DIXON            N/A     21  15  77 SW16G22   29.73R WCI   7
RAWLINS        LGT SNOW  13   8  81 NE20      29.71S WCI  -5
SARATOGA       MOCLDY    14  10  85 CALM      29.69R
LARAMIE        CLOUDY    12   5  73 E7        29.74R WCI   1
CHEYENNE       LGT SNOW  15  11  83 N15       29.79S FOG     WCI   0
TORRINGTON     LGT SNOW  22  18  85 N10       29.89R FOG     WCI  11
PINE BLUFFS    CLOUDY    19  18  93 N17       29.84R WCI   4

$$




USA.gov is the U.S. government's official web portal to all federal, state and local government web resources and services.